Meteo pe oră la Dabie

Astăzi, 10 Aprilie, Sâmbătă

Timp Temperatura Precipitaţii Vânt Presiune Umiditate
00:00 +5°C° 0 mm 2 m/s 753 mmHg 82%
01:00 +4°C° 0 mm 2 m/s 752 mmHg 84%
02:00 +4°C° 0 mm 2 m/s 752 mmHg 85%
03:00 +5°C° 0 mm 1 m/s 752 mmHg 85%
04:00 +5°C° 0 mm 1 m/s 752 mmHg 86%
05:00 +5°C° 0.1 mm 1 m/s 752 mmHg 84%
06:00 +6°C° 0.1 mm 1 m/s 752 mmHg 82%
07:00 +7°C° 0 mm 1 m/s 753 mmHg 80%
08:00 +7°C° 1.5 mm 1 m/s 753 mmHg 85%
09:00 +6°C° 1.5 mm 1 m/s 753 mmHg 90%
10:00 +6°C° 1.5 mm 1 m/s 753 mmHg 94%
11:00 +7°C° 0.1 mm 1 m/s 754 mmHg 93%
12:00 +7°C° 0.1 mm 1 m/s 754 mmHg 92%
13:00 +6°C° 0.1 mm 0 m/s 754 mmHg 90%
14:00 +7°C° 0 mm 1 m/s 755 mmHg 89%
15:00 +8°C° 0 mm 1 m/s 755 mmHg 88%
16:00 +8°C° 0 mm 1 m/s 755 mmHg 87%
17:00 +7°C° 0 mm 1 m/s 755 mmHg 89%
18:00 +7°C° 0 mm 1 m/s 755 mmHg 92%
19:00 +7°C° 0 mm 1 m/s 755 mmHg 94%
20:00 +6°C° 0 mm 2 m/s 755 mmHg 94%
21:00 +6°C° 0 mm 2 m/s 755 mmHg 94%
22:00 +6°C° 0 mm 2 m/s 755 mmHg 94%
23:00 +5°C° 0 mm 3 m/s 755 mmHg 95%

Mâine, 11 Aprilie, Duminică

Timp Temperatura Precipitaţii Vânt Presiune Umiditate
00:00 +4°C° 0 mm 3 m/s 754 mmHg 95%
01:00 +4°C° 0 mm 3 m/s 754 mmHg 96%
02:00 +4°C° 0 mm 3 m/s 753 mmHg 95%
03:00 +4°C° 0 mm 3 m/s 753 mmHg 95%
04:00 +5°C° 0 mm 3 m/s 753 mmHg 95%
05:00 +5°C° 0 mm 3 m/s 753 mmHg 92%
06:00 +7°C° 0 mm 3 m/s 752 mmHg 88%
07:00 +8°C° 0 mm 3 m/s 752 mmHg 85%
08:00 +10°C° 0 mm 3 m/s 752 mmHg 76%
09:00 +11°C° 0 mm 3 m/s 752 mmHg 67%
10:00 +13°C° 0 mm 4 m/s 752 mmHg 58%
11:00 +16°C° 0 mm 3 m/s 752 mmHg 54%
12:00 +17°C° 0 mm 3 m/s 752 mmHg 50%
13:00 +18°C° 0 mm 3 m/s 751 mmHg 46%
14:00 +18°C° 0 mm 3 m/s 751 mmHg 46%
15:00 +18°C° 0 mm 3 m/s 751 mmHg 46%
16:00 +18°C° 0 mm 3 m/s 751 mmHg 47%
17:00 +16°C° 0 mm 3 m/s 751 mmHg 55%
18:00 +13°C° 0 mm 3 m/s 751 mmHg 64%
19:00 +12°C° 0 mm 2 m/s 751 mmHg 72%
20:00 +12°C° 0 mm 2 m/s 751 mmHg 74%
21:00 +10°C° 0 mm 2 m/s 751 mmHg 77%
22:00 +9°C° 0 mm 2 m/s 751 mmHg 79%
23:00 +9°C° 0 mm 2 m/s 752 mmHg 81%

Poimâine, 12 Aprilie, Luni

Timp Temperatura Precipitaţii Vânt Presiune Umiditate
00:00 +9°C° 0 mm 2 m/s 752 mmHg 82%
01:00 +9°C° 0 mm 2 m/s 752 mmHg 84%
02:00 +8°C° 0 mm 2 m/s 752 mmHg 87%
03:00 +8°C° 0 mm 3 m/s 752 mmHg 90%
04:00 +8°C° 0 mm 3 m/s 752 mmHg 93%
05:00 +8°C° 0 mm 3 m/s 753 mmHg 91%
06:00 +7°C° 0 mm 3 m/s 754 mmHg 88%
07:00 +6°C° 0 mm 4 m/s 754 mmHg 86%
08:00 +6°C° 0 mm 4 m/s 755 mmHg 86%
09:00 +5°C° 0 mm 4 m/s 755 mmHg 85%
10:00 +5°C° 0 mm 4 m/s 756 mmHg 85%
11:00 +4°C° 0.1 mm 4 m/s 756 mmHg 87%
12:00 +4°C° 0.1 mm 4 m/s 757 mmHg 90%
13:00 +3°C° 0.1 mm 4 m/s 757 mmHg 92%
14:00 +3°C° 0.3 mm 4 m/s 757 mmHg 93%
15:00 +3°C° 0.3 mm 4 m/s 758 mmHg 94%
16:00 +3°C° 0.3 mm 4 m/s 758 mmHg 95%
17:00 +3°C° 0.5 mm 3 m/s 758 mmHg 93%
18:00 +3°C° 0.5 mm 3 m/s 759 mmHg 91%
19:00 +3°C° 0.5 mm 3 m/s 759 mmHg 89%
20:00 +4°C° 0.2 mm 2 m/s 759 mmHg 87%
21:00 +4°C° 0.2 mm 2 m/s 760 mmHg 86%
22:00 +5°C° 0.2 mm 1 m/s 760 mmHg 85%
23:00 +4°C° 0.1 mm 1 m/s 760 mmHg 84%

13 Aprilie, Marţi

Timp Temperatura Precipitaţii Vânt Presiune Umiditate
00:00 +3°C° 0.1 mm 2 m/s 760 mmHg 82%
01:00 +3°C° 0.1 mm 2 m/s 760 mmHg 81%
02:00 +3°C° 0 mm 2 m/s 760 mmHg 82%
03:00 +2°C° 0 mm 2 m/s 761 mmHg 82%
04:00 +1°C° 0 mm 3 m/s 761 mmHg 82%
05:00 +1°C° 0 mm 3 m/s 761 mmHg 82%
06:00 +1°C° 0 mm 3 m/s 761 mmHg 82%
07:00 +1°C° 0 mm 3 m/s 761 mmHg 83%
08:00 +1°C° 0 mm 4 m/s 761 mmHg 74%
09:00 +4°C° 0 mm 4 m/s 762 mmHg 65%
10:00 +5°C° 0 mm 4 m/s 762 mmHg 56%
11:00 +6°C° 0 mm 4 m/s 761 mmHg 50%
12:00 +7°C° 0 mm 4 m/s 761 mmHg 43%
13:00 +8°C° 0 mm 4 m/s 761 mmHg 37%
14:00 +8°C° 0 mm 4 m/s 761 mmHg 38%
15:00 +8°C° 0 mm 4 m/s 760 mmHg 39%
16:00 +8°C° 0 mm 4 m/s 760 mmHg 39%
17:00 +7°C° 0 mm 4 m/s 760 mmHg 46%
18:00 +5°C° 0 mm 3 m/s 760 mmHg 52%
19:00 +5°C° 0 mm 2 m/s 761 mmHg 59%
20:00 +5°C° 0 mm 2 m/s 761 mmHg 62%
21:00 +4°C° 0 mm 2 m/s 761 mmHg 65%
22:00 +4°C° 0 mm 2 m/s 761 mmHg 68%
23:00 +3°C° 0 mm 2 m/s 761 mmHg 72%

14 Aprilie, Miercuri

Timp Temperatura Precipitaţii Vânt Presiune Umiditate
00:00 +3°C° 0 mm 2 m/s 761 mmHg 75%
01:00 +2°C° 0 mm 2 m/s 761 mmHg 79%
02:00 +2°C° 0 mm 2 m/s 761 mmHg 81%
03:00 +2°C° 0 mm 2 m/s 761 mmHg 83%
04:00 +1°C° 0 mm 2 m/s 761 mmHg 86%
05:00 +1°C° 0 mm 3 m/s 761 mmHg 83%
06:00 +1°C° 0 mm 3 m/s 762 mmHg 80%
07:00 +2°C° 0 mm 3 m/s 762 mmHg 78%
08:00 +3°C° 0 mm 4 m/s 762 mmHg 69%
09:00 +4°C° 0 mm 4 m/s 762 mmHg 61%
10:00 +5°C° 0 mm 4 m/s 762 mmHg 53%
11:00 +6°C° 0 mm 4 m/s 761 mmHg 48%
12:00 +7°C° 0 mm 4 m/s 761 mmHg 42%
13:00 +8°C° 0 mm 4 m/s 761 mmHg 37%
14:00 +8°C° 0 mm 4 m/s 761 mmHg 37%
15:00 +8°C° 0 mm 4 m/s 760 mmHg 38%
16:00 +8°C° 0 mm 5 m/s 760 mmHg 38%
17:00 +6°C° 0 mm 4 m/s 760 mmHg 45%
18:00 +5°C° 0 mm 4 m/s 760 mmHg 53%
19:00 +4°C° 0 mm 3 m/s 761 mmHg 60%
20:00 +3°C° 0 mm 3 m/s 761 mmHg 64%
21:00 +2°C° 0 mm 3 m/s 761 mmHg 68%
22:00 +1°C° 0 mm 3 m/s 761 mmHg 71%
23:00 +1°C° 0 mm 3 m/s 761 mmHg 72%

15 Aprilie, Joi

Timp Temperatura Precipitaţii Vânt Presiune Umiditate
00:00 0°C° 0 mm 3 m/s 762 mmHg 72%
01:00 0°C° 0 mm 3 m/s 762 mmHg 72%
02:00 0°C° 0 mm 3 m/s 762 mmHg 73%
03:00 0°C° 0 mm 3 m/s 762 mmHg 73%
04:00 0°C° 0 mm 3 m/s 762 mmHg 74%
05:00 0°C° 0 mm 3 m/s 762 mmHg 71%
06:00 +1°C° 0 mm 3 m/s 762 mmHg 68%
07:00 0°C° 0 mm 4 m/s 762 mmHg 66%
08:00 +1°C° 0 mm 4 m/s 762 mmHg 59%
09:00 +3°C° 0 mm 5 m/s 762 mmHg 53%
10:00 +5°C° 0 mm 5 m/s 762 mmHg 46%
11:00 +4°C° 0 mm 6 m/s 762 mmHg 46%
12:00 +5°C° 0 mm 6 m/s 762 mmHg 45%
13:00 +5°C° 0 mm 6 m/s 762 mmHg 44%
14:00 +5°C° 0 mm 6 m/s 762 mmHg 53%
15:00 +5°C° 0 mm 5 m/s 762 mmHg 62%
16:00 +5°C° 0 mm 5 m/s 762 mmHg 72%
17:00 +3°C° 0.3 mm 5 m/s 762 mmHg 76%
18:00 +3°C° 0.3 mm 5 m/s 762 mmHg 80%
19:00 +2°C° 0.3 mm 5 m/s 762 mmHg 85%
20:00 +2°C° 0.2 mm 5 m/s 762 mmHg 86%
21:00 +3°C° 0.2 mm 4 m/s 762 mmHg 88%
22:00 +1°C° 0.2 mm 4 m/s 762 mmHg 89%
23:00 +1°C° 0.1 mm 4 m/s 762 mmHg 88%
Arată mai mult

Formular de consimțământ

Meteoprog și furnizorii noștri de servicii pot stoca și accesa date personale, precum cookies, identificatori de dispozitiv sau alte tehnologii similare pe dispozitivul dumneavoastră și procesa astfel de date pentru a personaliza conținutul și reclamele, dar și pentru a oferi caracteristici de social media și pentru a analiza traficul.

  • Stocarea și/sau accesarea informațiilor pe dispozitivul dumneavoastră

    Cookies, identificatori de dispozitiv sau alte informații pot fi stocate sau accesate pe dispozitiv în scopurile indicate mai sus.

  • Reclame și conținut personalizat, evaluarea reclamelor și a conținutului, informații despre audiențe și dezvoltarea produselor

    Reclamele și conținutul pot fi personalizate pe baza unui profil. Pot fi adăugate date suplimentare pentru a personaliza mai bine reclamele și conținutul. Performanța reclamelor și conținutului poate fi măsurată. Pot fi obținute informații despre utilizatorii care au văzut reclamele și conținutul. Aceste date pot fi utilizate pentru a dezvolta sau îmbunătăți experiența utilizatorilor, sistemele și software-ul.

Dând clic pe ‘Sunt de acord’, permiteți utilizarea cookie-urilor menționate, a identificatorilor de dispozitiv, balizelor web sau altor tehnologii similare. Setările pot fi modificate din browser-ul dispozitivului dumneavoastră.

În anumite scopuri, interesele legitime pot prima asupra consimțământului. Puteți citi mai multe informații în acest sens în Politica privind Confidențialitatea Datelor și Cookie.